Volver al catálogo

JILIN-01 GAOFEN 3F

ActivoCienciaSSO
NORAD 46458·PAYLOAD·🇨🇳 China

Lanzado Sep 15, 2020 desde Yellow Sea Launch Area

Loading…

Próximos Pases (próximas 24 horas)

TLE

ActualizadoSource: Space-Track

Época: Sep 14, 2026, 21:37 UTC

1 46458U 20065E   26257.90117661  .00094437  00000-0  72813-3 0  9994
2 46458  97.2048 310.0860 0010722 165.3429 194.8147 15.71601722333745

Sigue JILIN-01 GAOFEN 3F en tiempo real con AllMySat

Download on the App Store